Location: Peterborough
(44.3091°N, 78.3197°W)
Time: 18:27:51
(UTC-04:00)

Explorer 11/Cluster Stage 4 - Pass Details

Date: 22 March 2023
Orbit: 466 x 1237 km, 28.8° (Epoch: 05 June)

Event Time Altitude Azimuth Distance (km) Brightness Sun altitude
Rises 13:34:01 0° 251° (WSW) 3,758 10.3 46.3°
Reaches altitude 10° 13:37:47 10° 231° (SW) 2,941 10.1 46.3°
Maximum altitude 13:42:00 16° 196° (SSW) 2,620 10.5 46.2°
Drops below altitude 10° 13:46:27 10° 162° (SSE) 3,148 10.5 46.0°
Sets 13:50:43 0° 143° (SE) 4,155 10.7 45.9°
